DW5467 Weather Reports


time (UTC)temp
C
wind
direction
speed
KPH
gust
KPH
rain 1hr
cm
rain 24hr
cm
rain mn
cm
humidity
%
barometer
mb
20260505121029 18 320 1.6 3.2 0.00 0.00 0.00 85 1008.2
20260505120029 18 206 1.6 4.8 0.00 0.00 0.00 85 1008.0
20260505115529 18 248 0.0 8.0 0.00 0.00 0.00 85 1007.9
20260505115029 18 148 1.6 3.2 0.00 0.00 0.00 85 1008.1
20260505114529 18 254 1.6 4.8 0.00 0.00 0.00 85 1008.1
20260505114030 18 52 1.6 4.8 0.00 0.00 0.00 85 1008.1
20260505113529 18 295 1.6 4.8 0.00 0.00 0.00 85 1008.1
20260505113030 18 248 0.0 3.2 0.00 0.00 0.00 85 1007.8
20260505112529 18 229 1.6 3.2 0.00 0.00 0.00 85 1007.9
20260505112030 18 282 0.0 4.8 0.00 0.00 0.00 85 1007.9
20260505111530 18 268 1.6 8.0 0.00 0.00 0.00 84 1007.9
20260505111029 18 298 0.0 3.2 0.00 0.00 0.00 84 1007.9
20260505110530 18 262 1.6 4.8 0.00 0.00 0.00 84 1007.8
20260505102030 18 311 0.0 4.8 0.00 0.00 0.00 83 1008.1
20260505101529 18 296 1.6 4.8 0.00 0.00 0.00 83 1007.9
20260505101029 18 304 1.6 4.8 0.00 0.00 0.00 83 1007.8
20260505100530 18 261 1.6 4.8 0.00 0.00 0.00 83 1007.9
20260505095529 18 321 0.0 3.2 0.00 0.00 0.00 82 1008.0
20260505094529 18 333 1.6 3.2 0.00 0.00 0.00 82 1008.1
20260505094029 18 258 0.0 4.8 0.00 0.00 0.00 82 1008.2
20260505093030 18 244 1.6 3.2 0.00 0.00 0.00 82 1008.4
20260505092530 18 240 1.6 4.8 0.00 0.00 0.00 81 1008.5
20260505092029 18 301 0.0 3.2 0.00 0.00 0.00 81 1008.6
20260505091029 18 298 1.6 4.8 0.00 0.00 0.00 81 1008.7
20260505090029 18 38 0.0 3.2 0.00 0.00 0.00 81 1008.8
20260505085530 18 334 0.0 0.0 0.00 0.00 0.00 81 1008.7
20260505085029 18 311 0.0 4.8 0.00 0.00 0.00 81 1008.8
20260505084530 18 308 0.0 1.6 0.00 0.00 0.00 80 1008.8
20260505083530 19 333 1.6 3.2 0.00 0.00 0.00 80 1008.8
20260505082529 19 290 1.6 4.8 0.00 0.00 0.00 80 1008.8
20260505082029 19 43 1.6 4.8 0.00 0.00 0.00 80 1008.9
20260505081529 19 321 0.0 3.2 0.00 0.00 0.00 80 1008.9
20260505080529 19 323 0.0 4.8 0.00 0.00 0.00 80 1008.8
20260505080029 19 290 1.6 9.7 0.00 0.00 0.00 80 1008.8
20260505075530 19 308 1.6 4.8 0.00 0.00 0.00 80 1009.0
20260505075029 19 294 1.6 4.8 0.00 0.00 0.00 80 1009.1
20260505074529 19 320 0.0 4.8 0.00 0.00 0.00 79 1009.2
20260505073529 19 300 1.6 4.8 0.00 0.00 0.00 79 1009.1
20260505073030 19 250 0.0 3.2 0.00 0.00 0.00 79 1009.1
20260505072530 19 224 1.6 8.0 0.00 0.00 0.00 79 1009.1
20260505072029 19 262 1.6 4.8 0.00 0.00 0.00 79 1009.1
20260505071029 19 32 1.6 8.0 0.00 0.00 0.00 79 1009.2
20260505070529 19 331 1.6 4.8 0.00 0.00 0.00 79 1009.3
20260505070029 19 306 1.6 4.8 0.00 0.00 0.00 78 1009.4
20260505065529 19 251 1.6 4.8 0.00 0.00 0.00 78 1009.5
20260505064529 19 326 1.6 4.8 0.00 0.00 0.00 78 1009.5
20260505064029 19 324 0.0 4.8 0.00 0.00 0.00 78 1009.5
20260505063529 19 294 0.0 4.8 0.00 0.00 0.00 78 1009.6
20260505062529 19 327 0.0 4.8 0.00 0.00 0.00 78 1009.6
20260505062030 19 273 1.6 4.8 0.00 0.00 0.00 78 1009.8
20260505060529 19 216 1.6 4.8 0.00 0.00 0.00 78 1009.9
20260505060029 19 258 0.0 8.0 0.00 0.00 0.00 78 1010.0
20260505055529 19 259 1.6 4.8 0.00 0.00 0.00 78 1010.0
20260505054029 19 274 1.6 4.8 0.00 0.00 0.00 77 1009.9
20260505053529 19 222 1.6 8.0 0.00 0.00 0.00 77 1009.9
20260505053029 19 322 0.0 3.2 0.00 0.00 0.00 77 1009.9
20260505052029 20 283 1.6 4.8 0.00 0.00 0.00 77 1010.1
20260505051029 20 28 1.6 3.2 0.00 0.00 0.00 76 1010.1
20260505050529 20 30 0.0 3.2 0.00 0.00 0.00 76 1010.1
20260505041529 20 309 0.0 3.2 0.00 0.00 0.00 76 1010.3
20260505041029 20 313 1.6 3.2 0.00 0.00 0.00 76 1010.3
20260505040530 20 311 0.0 3.2 0.00 0.00 0.00 76 1010.3
20260505040029 20 309 0.0 3.2 0.00 0.00 0.00 76 1010.3
20260505035529 20 306 1.6 3.2 0.00 0.00 0.00 76 1010.2
20260505035029 20 306 0.0 8.0 0.00 0.00 0.00 75 1010.2
20260505034530 20 320 1.6 8.0 0.00 0.00 0.00 75 1010.2
20260505033529 20 302 0.0 4.8 0.00 0.00 0.00 76 1010.3
20260505032529 20 319 1.6 3.2 0.00 0.00 0.00 74 1010.4
20260505032030 20 319 1.6 3.2 0.00 0.00 0.00 74 1010.2
20260505031529 20 319 0.0 3.2 0.00 0.00 0.00 74 1010.2
20260505031029 20 319 0.0 4.8 0.00 0.00 0.00 74 1010.1
20260505030529 20 272 1.6 4.8 0.00 0.00 0.00 73 1010.1
20260505030030 20 298 0.0 0.0 0.00 0.00 0.00 73 1010.1
20260505025529 20 298 0.0 0.0 0.00 0.00 0.00 73 1010.1
20260505025030 20 279 0.0 0.0 0.00 0.00 0.00 73 1010.1
20260505024529 20 279 0.0 0.0 0.00 0.00 0.00 72 1010.0
20260505024029 20 279 0.0 0.0 0.00 0.00 0.00 71 1010.0
20260505023529 20 279 0.0 1.6 0.00 0.00 0.00 72 1010.0
20260505023029 20 277 1.6 3.2 0.00 0.00 0.00 71 1009.9
20260505022529 20 276 1.6 4.8 0.00 0.00 0.00 72 1009.8
20260505022029 20 313 1.6 4.8 0.00 0.00 0.00 72 1009.7
20260505021529 20 323 0.0 4.8 0.00 0.00 0.00 71 1009.6
20260505021030 20 269 1.6 3.2 0.00 0.00 0.00 70 1009.7
20260505020529 20 259 1.6 3.2 0.00 0.00 0.00 70 1009.6
20260505015029 20 329 1.6 3.2 0.00 0.00 0.00 69 1009.5
20260505014529 21 28 1.6 3.2 0.00 0.00 0.00 70 1009.5
20260505014029 21 31 0.0 3.2 0.00 0.00 0.00 69 1009.5
20260505013530 21 75 0.0 1.6 0.00 0.00 0.00 68 1009.4
20260505013029 21 304 0.0 0.0 0.00 0.00 0.00 68 1009.3
20260505012530 21 304 0.0 4.8 0.00 0.00 0.00 68 1009.3
20260505012030 21 277 1.6 3.2 0.00 0.00 0.00 68 1009.2
20260505011529 21 277 0.0 1.6 0.00 0.00 0.00 67 1009.3
20260505010529 21 277 0.0 3.2 0.00 0.00 0.00 66 1009.2
20260505010029 21 253 0.0 1.6 0.00 0.00 0.00 65 1009.3
20260505005529 21 253 1.6 3.2 0.00 0.00 0.00 66 1009.2
20260505005029 21 254 1.6 4.8 0.00 0.00 0.00 65 1009.3
20260505004529 22 330 1.6 4.8 0.00 0.00 0.00 64 1009.2
20260505004029 22 25 0.0 1.6 0.00 0.00 0.00 63 1009.4
20260505003529 22 14 0.0 3.2 0.00 0.00 0.00 63 1009.6
20260505003030 22 317 0.0 4.8 0.00 0.00 0.00 62 1009.6
20260505002529 22 317 0.0 3.2 0.00 0.00 0.00 62 1009.6
20260505002029 22 318 1.6 9.7 0.00 0.00 0.00 62 1009.6
20260505001529 22 341 0.0 3.2 0.00 0.00 0.00 62 1009.7
20260505001028 22 342 1.6 4.8 0.00 0.00 0.00 62 1009.7
20260505000529 22 218 0.0 4.8 0.00 0.00 0.00 61 1009.9
20260504235529 22 313 1.6 3.2 0.00 0.00 0.00 61 1009.9
20260504234529 23 313 1.6 4.8 0.00 0.00 0.00 61 1010.0
20260504233528 22 298 1.6 3.2 0.00 0.00 0.00 60 1010.2
20260504233029 23 310 1.6 3.2 0.00 0.00 0.00 60 1010.1
20260504232529 23 313 0.0 4.8 0.00 0.00 0.00 57 1010.2
20260504232028 23 314 1.6 3.2 0.00 0.00 0.00 58 1010.1
20260504231529 23 1 1.6 4.8 0.00 0.00 0.00 57 1010.2
20260504231029 23 285 1.6 4.8 0.00 0.00 0.00 60 1010.2
20260504230529 23 220 3.2 8.0 0.00 0.00 0.00 59 1010.4
20260504230029 23 291 1.6 4.8 0.00 0.00 0.00 58 1010.4
20260504225529 23 299 1.6 4.8 0.00 0.00 0.00 56 1010.4
20260504225028 23 119 1.6 4.8 0.00 0.00 0.00 58 1010.5
20260504224529 23 284 1.6 4.8 0.00 0.00 0.00 58 1010.6
20260504224029 23 272 1.6 4.8 0.00 0.00 0.00 58 1010.8
20260504223529 23 318 1.6 4.8 0.00 0.00 0.00 57 1010.9
20260504223029 23 303 1.6 4.8 0.00 0.00 0.00 57 1010.9
20260504222528 23 197 1.6 4.8 0.00 0.00 0.00 58 1010.9
20260504221529 23 294 1.6 4.8 0.00 0.00 0.00 56 1011.0
20260504221029 24 298 1.6 4.8 0.00 0.00 0.00 56 1010.9
20260504220529 24 274 3.2 8.0 0.00 0.00 0.00 53 1010.9
20260504220029 24 336 1.6 4.8 0.00 0.00 0.00 53 1011.0
20260504215529 25 174 3.2 11.3 0.00 0.00 0.00 56 1011.3
20260504215029 25 298 3.2 11.3 0.00 0.00 0.00 54 1011.3
20260504214530 25 319 1.6 4.8 0.00 0.00 0.00 54 1011.3
20260504214029 25 346 3.2 8.0 0.00 0.00 0.00 51 1011.2
20260504213529 25 340 1.6 11.3 0.00 0.00 0.00 51 1011.4
20260504213029 25 255 3.2 9.7 0.00 0.00 0.00 55 1011.5
20260504212529 25 276 1.6 4.8 0.00 0.00 0.00 52 1011.6
20260504212029 25 187 1.6 4.8 0.00 0.00 0.00 55 1011.7
20260504211529 25 3 3.2 4.8 0.00 0.00 0.00 51 1011.8
20260504211029 25 141 1.6 4.8 0.00 0.00 0.00 51 1011.8
20260504210028 25 183 3.2 4.8 0.00 0.00 0.00 51 1011.8
20260504205529 26 303 1.6 4.8 0.00 0.00 0.00 50 1012.0
20260504204529 26 221 3.2 4.8 0.00 0.00 0.00 50 1012.3
20260504204029 26 317 1.6 4.8 0.00 0.00 0.00 52 1012.4
20260504203529 26 198 1.6 4.8 0.00 0.00 0.00 51 1012.4
20260504203029 26 246 3.2 8.0 0.00 0.00 0.00 51 1012.6
20260504202529 26 246 3.2 9.7 0.00 0.00 0.00 47 1012.8
20260504202029 26 221 3.2 11.3 0.00 0.00 0.00 49 1012.8
20260504201529 26 290 1.6 4.8 0.00 0.00 0.00 47 1012.9
20260504201029 26 294 3.2 4.8 0.00 0.00 0.00 47 1013.1
20260504200529 26 238 3.2 4.8 0.00 0.00 0.00 52 1013.2
20260504200029 26 68 1.6 4.8 0.00 0.00 0.00 53 1013.2
20260504195529 26 24 1.6 4.8 0.00 0.00 0.00 49 1013.4
20260504195029 26 278 1.6 9.7 0.00 0.00 0.00 50 1013.4
20260504194530 26 76 1.6 4.8 0.00 0.00 0.00 49 1013.5
20260504194030 25 321 1.6 8.0 0.00 0.00 0.00 47 1013.7
20260504193529 25 289 1.6 4.8 0.00 0.00 0.00 48 1013.7
20260504193029 26 284 3.2 8.0 0.00 0.00 0.00 54 1013.7
20260504192528 26 56 1.6 4.8 0.00 0.00 0.00 47 1013.8
20260504192029 26 163 3.2 8.0 0.00 0.00 0.00 49 1013.8
20260504191529 25 130 1.6 8.0 0.00 0.00 0.00 50 1014.1
20260504191029 25 4 1.6 4.8 0.00 0.00 0.00 50 1014.1
20260504190530 25 325 1.6 4.8 0.00 0.00 0.00 48 1014.2
20260504190029 25 154 1.6 4.8 0.00 0.00 0.00 50 1014.4
20260504185029 25 343 3.2 4.8 0.00 0.00 0.00 49 1014.4
20260504184528 25 307 0.0 4.8 0.00 0.00 0.00 52 1014.5
20260504184029 25 25 1.6 4.8 0.00 0.00 0.00 50 1014.5
20260504183529 25 280 1.6 4.8 0.00 0.00 0.00 52 1014.7
20260504183028 25 75 1.6 4.8 0.00 0.00 0.00 52 1014.6
20260504182529 25 249 3.2 9.7 0.00 0.00 0.00 50 1014.7
20260504182029 25 103 3.2 4.8 0.00 0.00 0.00 51 1014.7
20260504181528 25 247 3.2 9.7 0.00 0.00 0.00 52 1015.0
20260504181029 25 206 1.6 4.8 0.00 0.00 0.00 53 1015.2
20260504180529 25 326 1.6 4.8 0.00 0.00 0.00 51 1015.2
20260504180029 25 259 3.2 4.8 0.00 0.00 0.00 50 1015.3
20260504175029 25 335 1.6 4.8 0.00 0.00 0.00 51 1015.5
20260504174528 25 313 3.2 8.0 0.00 0.00 0.00 52 1015.6
20260504174029 25 280 1.6 4.8 0.00 0.00 0.00 53 1015.5
20260504173029 24 42 3.2 8.0 0.00 0.00 0.00 51 1015.5
20260504172529 24 231 3.2 9.7 0.00 0.00 0.00 52 1015.6
20260504172029 24 336 4.8 9.7 0.00 0.00 0.00 52 1015.5
20260504171528 24 269 3.2 4.8 0.00 0.00 0.00 54 1015.4
20260504170529 24 155 4.8 11.3 0.00 0.00 0.00 53 1015.5
20260504151029 20 348 1.6 4.8 0.00 0.00 0.00 65 1016.3
20260504150528 20 334 3.2 4.8 0.00 0.00 0.00 64 1016.4
20260504141029 18 129 0.0 4.8 0.00 0.00 0.00 72 1016.5
20260504140529 18 189 0.0 0.0 0.00 0.00 0.00 72 1016.5